Pagina principale
METAR-TAF:

METAR-TAF

Aeroporti :

Aeroporto di Salerno-Costa d'Amalfi

Salerno, Italia

latitudine: 40-37N, longitudine: 014-55E, altezza: 40 m

Osservazione

Il bollettino è stato emesso 3 ore e 49 minuti fa, alle 14:50 UTC
Vento 17 kt da sud/sud-ovest
Temperature 18°C
Umidità 73%
Pressione 1007 hPa
Visibilità 10 km o più
Poco nuvoloso ad un'altezza di 3000 ft

METAR: LIRI 191450Z 21017KT 9999 FEW030 18/13 Q1007

Ora: 20:39 (18:39 UTC)


TAF: mancante

Osservazioni e previsioni meteorologiche di più di 4000 aeroporti (messaggi METAR e TAF).

Le stazioni disponibili sono rappresentate dai dischi gialli e rossi sulla carta.

Puntare il mouse per vedere il nome della stazione.

Clicca sopra per visualizzare le osservazioni e previsioni meteorologiche.

Per cambiare la mappa : fare clic sui pulsanti verdi con una croce nera per ingrandire, il pulsante verde con un trattino per diminuire, o sulla freccia verde per le mappe adiacenti.


METAR-TAF: